Regional Weather Roundup
Issued by NWS Little Rock, AR

Home | Current Version | Previous Version | Text Only | Print | Product List | Glossary Off
Versions: 1 2 3 4 5 6 7 8 9 10 11 12 13 14 15 16 17 18 19 20 21 22 23 24 25 26 27 28 29 30 31 32 33 34 35 36 37 38 39 40 41 42 43 44 45 46 47 48 49 50

000
ASUS44 KLZK 160505
RWRLZK

WEATHER ROUNDUP FOR ARKANSAS
NATIONAL WEATHER SERVICE LITTLE ROCK AR
1200 AM CDT TUE SEP 16 2014

NOTE: "FAIR" INDICATES FEW OR NO CLOUDS BELOW 12,000 FEET WITH NO
SIGNIFICANT WEATHER AND/OR OBSTRUCTIONS TO VISIBILITY.

ARZ001-003-010-029-160600-
NORTHWEST ARKANSAS

CITY           SKY/WX    TMP DP  RH WIND       PRES   REMARKS
FAYETTEVILLE   PTCLDY    65  65 100 CALM      30.18R
FORT SMITH     CLEAR     70  68  93 CALM      30.13S
HARRISON       CLOUDY    70  67  90 W6        30.16S
BENTONVILLE    CLOUDY    72  66  83 W5        30.18S
ROGERS         CLOUDY    70  67  90 CALM      30.18S
SILOAM SPGS    CLOUDY    70  64  83 CALM      30.18S
HIGHFILL       CLOUDY    71  68  90 W3        30.17S
$$

ARZ004-005-016-160600-
NORTH CENTRAL ARKANSAS

CITY           SKY/WX    TMP DP  RH WIND       PRES   REMARKS
BATESVILLE     CLEAR     70  66  88 W5        30.11F
FLIPPIN        MOCLDY    70  63  78 W5        30.14R
MTN HOME       MOCLDY    68  67  96 CALM      30.13S
$$

ARZ040-041-160600-
WEST CENTRAL ARKANSAS

CITY           SKY/WX    TMP DP  RH WIND       PRES   REMARKS
MENA             N/A     72  70  94 CALM        N/A
MOUNT IDA      CLOUDY    70  68  93 CALM      30.14F
$$

ARZ009-017-025-026-028-160600-
NORTHEAST ARKANSAS

CITY           SKY/WX    TMP DP  RH WIND       PRES   REMARKS
CORNING          N/A     66  66 100 W5        30.11F FOG
JONESBORO      PTCLDY    69  65  86 W5        30.11S
NEWPORT        CLEAR     66  65  97 SW6       30.12S
WALNUT RIDGE   MOCLDY    64  59  82 NW5       30.10S
BLYTHEVILLE    PTCLDY    67  65  93 S3        30.11S
$$

ARZ022-023-033-042-044-160600-
CENTRAL ARKANSAS

CITY           SKY/WX    TMP DP  RH WIND       PRES   REMARKS
LITTLE ROCK    CLOUDY    71  66  84 SW5       30.13F
N LITTLE ROCK  MOCLDY    71  68  91 W5        30.13F
JACKSONVILLE   MOCLDY    69  67  94 SW5       30.13F
SEARCY         PTCLDY    65  64  96 CALM      30.13F
HOT SPRINGS    CLOUDY    71  68  90 CALM      30.15F
RUSSELLVILLE   MOCLDY    68  66  93 CALM      30.14S
CLINTON        CLOUDY    64  64 100 CALM      30.14F FOG
$$

ARZ036-160600-
EAST ARKANSAS

CITY           SKY/WX    TMP DP  RH WIND       PRES   REMARKS
WEST MEMPHIS   MOCLDY    68  67  96 S3        30.10F
$$

ARZ050-053-066-070-073-160600-
SOUTHWEST ARKANSAS

CITY           SKY/WX    TMP DP  RH WIND       PRES   REMARKS
ARKADELPHIA    LGT RAIN  71  71 100 CALM      30.15S FOG
CAMDEN         CLOUDY    68  66  94 CALM      30.14F FOG
TEXARKANA      CLOUDY    72  70  93 CALM      30.14S
EL DORADO      PTCLDY    71  69  93 N5        30.14S
DE QUEEN       CLOUDY    71  69  93 CALM      30.13S
$$

ARZ056-057-069-160600-
SOUTHEAST ARKANSAS

CITY           SKY/WX    TMP DP  RH WIND       PRES   REMARKS
PINE BLUFF     CLOUDY    70  68  93 S3        30.14F
STUTTGART      CLOUDY    72  64  78 S6        30.13F
MONTICELLO     CLOUDY    73  68  84 CALM      30.14S

$$




USA.gov is the U.S. government's official web portal to all federal, state and local government web resources and services.